Volver al catálogo

DELTA 1 DEB

ActivoSSO
NORAD 21471·DEBRIS·🇺🇸 United States

Lanzado Jun 12, 1975 desde Vandenberg Space Force Base

Loading…

Próximos Pases (próximas 24 horas)

TLE

ActualizadoSource: Space-Track

Época: Sep 14, 2026, 10:03 UTC

1 21471U 75052FF  26257.41909193  .00000304  00000-0  39602-3 0  9992
2 21471  99.9646  55.5409 0249231 128.1226 261.2305 13.57751167748563

Sigue DELTA 1 DEB en tiempo real con AllMySat

Download on the App Store